TimeCST,TemperatureF,Dew PointF,Humidity,Sea Level PressureIn,VisibilityMPH,Wind Direction,Wind SpeedMPH,Gust SpeedMPH,PrecipitationIn,Events,Conditions,WindDirDegrees,DateUTC
12:52 AM,28.0,25.0,88,30.01,10.0,South,4.6,-,N/A,,Overcast,180,2013-02-16 06:52:00
1:52 AM,28.0,26.1,92,30.00,10.0,Calm,Calm,-,N/A,,Overcast,0,2013-02-16 07:52:00
2:52 AM,26.6,24.8,93,29.89,10.0,SW,3.5,-,N/A,,Overcast,220,2013-02-16 08:52:00
3:52 AM,27.0,23.0,85,29.99,10.0,Calm,Calm,-,N/A,,Clear,0,2013-02-16 09:52:00
4:52 AM,30.0,26.1,85,29.97,10.0,WNW,12.7,-,N/A,,Overcast,290,2013-02-16 10:52:00
5:52 AM,30.2,26.6,86,29.89,10.0,NW,8.1,-,N/A,,Clear,310,2013-02-16 11:52:00
6:52 AM,28.0,24.1,85,29.98,10.0,WSW,3.5,-,N/A,,Clear,250,2013-02-16 12:52:00
7:52 AM,27.0,23.0,85,29.99,10.0,SW,9.2,-,N/A,,Clear,230,2013-02-16 13:52:00
8:52 AM,24.1,21.9,91,30.00,10.0,Calm,Calm,-,N/A,,Clear,0,2013-02-16 14:52:00
9:52 AM,25.0,21.9,88,29.99,10.0,WSW,3.5,-,N/A,,Clear,240,2013-02-16 15:52:00
10:52 AM,30.9,24.1,76,29.99,10.0,West,3.5,-,N/A,,Clear,280,2013-02-16 16:52:00
11:52 AM,30.9,26.1,82,29.99,10.0,WSW,10.4,-,0.00,,Clear,240,2013-02-16 17:52:00
12:52 PM,34.0,27.0,75,29.97,10.0,West,8.1,-,0.00,,Clear,260,2013-02-16 18:52:00
1:52 PM,35.1,27.0,72,29.95,10.0,WSW,9.2,-,0.00,,Clear,240,2013-02-16 19:52:00
2:52 PM,37.0,28.0,70,29.94,10.0,West,8.1,-,N/A,,Clear,260,2013-02-16 20:52:00
3:52 PM,37.9,30.0,73,29.91,10.0,WSW,10.4,-,N/A,,Clear,250,2013-02-16 21:52:00
4:52 PM,37.9,30.0,73,29.89,10.0,WSW,5.8,-,N/A,,Clear,250,2013-02-16 22:52:00
5:52 PM,37.0,30.0,76,29.88,10.0,Calm,Calm,-,N/A,,Clear,0,2013-02-16 23:52:00
6:52 PM,34.0,28.9,82,29.86,10.0,South,3.5,-,N/A,,Clear,190,2013-02-17 00:52:00
7:52 PM,32.0,28.0,85,29.85,10.0,South,3.5,-,N/A,,Clear,180,2013-02-17 01:52:00
8:52 PM,30.0,28.0,92,29.83,10.0,Calm,Calm,-,N/A,,Clear,0,2013-02-17 02:52:00
9:52 PM,28.9,27.0,92,29.79,10.0,Calm,Calm,-,N/A,,Clear,0,2013-02-17 03:52:00
10:52 PM,30.0,28.0,92,29.75,10.0,South,3.5,-,N/A,,Clear,170,2013-02-17 04:52:00
11:52 PM,27.0,26.1,96,29.72,10.0,South,3.5,-,N/A,,Clear,180,2013-02-17 05:52:00